Time,TemperatureF,DewpointF,PressureIn,WindDirection,WindDirectionDegrees,WindSpeedMPH,WindSpeedGustMPH,Humidity,HourlyPrecipIn,Conditions,Clouds,dailyrainin,SolarRadiationWatts/m^2,SoftwareType,DateUTC
2013-08-03 00:02:00,67.0,66.0,29.96,West,280,11.0,20.0,95,0.49,,,0.74,0.000000,,2013-08-03 04:02:00,
2013-08-03 00:12:00,66.0,65.0,29.96,SW,223,10.0,11.0,96,1.24,,,1.53,0.000000,,2013-08-03 04:12:00,
2013-08-03 00:33:00,65.0,64.0,29.95,SW,215,3.0,5.0,96,1.31,,,1.68,0.000000,,2013-08-03 04:33:00,
2013-08-03 00:43:00,65.0,64.0,29.96,SW,215,3.0,5.0,96,1.10,,,1.77,0.000000,,2013-08-03 04:43:00,
2013-08-03 00:53:00,65.0,64.0,29.95,SW,215,0.0,3.0,97,0.64,,,1.82,0.000000,,2013-08-03 04:53:00,
2013-08-03 01:02:00,65.0,64.0,29.95,SW,215,0.0,3.0,97,0.64,,,1.82,0.000000,,2013-08-03 05:02:00,
2013-08-03 01:12:00,65.0,64.0,29.96,SW,214,0.0,0.0,97,0.36,,,1.88,0.000000,,2013-08-03 05:12:00,
2013-08-03 01:22:00,65.0,64.0,29.96,SW,215,0.0,0.0,97,0.29,,,1.97,0.000000,,2013-08-03 05:22:00,
2013-08-03 01:32:00,65.0,64.0,29.95,SW,214,0.0,0.0,97,0.26,,,2.03,0.000000,,2013-08-03 05:32:00,
2013-08-03 01:42:00,65.0,64.0,29.95,SW,214,0.0,0.0,97,0.26,,,2.03,0.000000,,2013-08-03 05:42:00,
2013-08-03 01:52:00,66.0,65.0,29.95,SW,215,0.0,0.0,97,0.30,,,2.11,0.000000,,2013-08-03 05:52:00,
2013-08-03 02:02:00,65.0,64.0,29.95,SSW,193,2.0,7.0,97,0.28,,,2.15,0.000000,,2013-08-03 06:02:00,
2013-08-03 02:12:00,65.0,64.0,29.95,SSW,193,2.0,7.0,97,0.28,,,2.15,0.000000,,2013-08-03 06:12:00,
2013-08-03 02:23:00,65.0,64.0,29.95,South,186,4.0,10.0,97,0.20,,,2.16,0.000000,,2013-08-03 06:23:00,
2013-08-03 02:33:00,65.0,64.0,29.95,South,176,7.0,9.0,97,0.15,,,2.17,0.000000,,2013-08-03 06:33:00,
2013-08-03 02:42:00,65.0,64.0,29.95,South,176,7.0,9.0,97,0.15,,,2.17,0.000000,,2013-08-03 06:42:00,
2013-08-03 02:52:00,65.0,64.0,29.95,SSE,167,5.0,11.0,97,0.10,,,2.20,0.000000,,2013-08-03 06:52:00,
2013-08-03 03:02:00,65.0,64.0,29.96,SSE,163,0.0,7.0,98,0.05,,,2.20,0.000000,,2013-08-03 07:02:00,
2013-08-03 03:12:00,65.0,64.0,29.96,SSE,163,0.0,7.0,98,0.05,,,2.20,0.000000,,2013-08-03 07:12:00,
2013-08-03 03:22:00,65.0,64.0,29.94,SSE,163,0.0,0.0,98,0.05,,,2.21,0.000000,,2013-08-03 07:22:00,
2013-08-03 03:32:00,65.0,64.0,29.94,SSE,163,0.0,0.0,98,0.05,,,2.21,0.000000,,2013-08-03 07:32:00,
2013-08-03 03:43:00,65.0,64.0,29.94,SSE,163,0.0,0.0,98,0.05,,,2.21,0.000000,,2013-08-03 07:43:00,
2013-08-03 03:53:00,64.0,63.0,29.93,SSE,163,3.0,6.0,97,0.01,,,2.21,0.000000,,2013-08-03 07:53:00,
2013-08-03 04:02:00,64.0,63.0,29.93,SSE,163,0.0,0.0,97,0.01,,,2.21,0.000000,,2013-08-03 08:02:00,
2013-08-03 04:12:00,64.0,63.0,29.93,SSE,163,0.0,0.0,97,0.01,,,2.21,0.000000,,2013-08-03 08:12:00,
2013-08-03 04:22:00,64.0,63.0,29.93,SSE,163,0.0,0.0,98,0.00,,,2.21,0.000000,,2013-08-03 08:22:00,
2013-08-03 04:32:00,64.0,63.0,29.93,SSE,163,0.0,0.0,98,0.00,,,2.21,0.000000,,2013-08-03 08:32:00,
2013-08-03 04:43:00,64.0,63.0,29.93,SSE,163,0.0,0.0,98,0.00,,,2.21,0.000000,,2013-08-03 08:43:00,
2013-08-03 04:52:00,64.0,63.0,29.94,SSE,163,0.0,0.0,98,0.00,,,2.21,0.000000,,2013-08-03 08:52:00,
2013-08-03 05:02:00,64.0,63.0,29.95,SSE,163,0.0,0.0,98,0.00,,,2.21,0.000000,,2013-08-03 09:02:00,
2013-08-03 05:12:00,64.0,63.0,29.95,SSE,163,0.0,0.0,98,0.00,,,2.21,0.000000,,2013-08-03 09:12:00,
2013-08-03 05:22:00,64.0,63.0,29.95,SSE,163,0.0,0.0,98,0.00,,,2.21,0.000000,,2013-08-03 09:22:00,
2013-08-03 05:32:00,65.0,64.0,29.96,SSE,163,0.0,4.0,98,0.00,,,2.21,0.000000,,2013-08-03 09:32:00,
2013-08-03 05:43:00,65.0,64.0,29.96,SSE,163,0.0,4.0,98,0.00,,,2.21,0.000000,,2013-08-03 09:43:00,
2013-08-03 05:53:00,65.0,64.0,29.96,SSE,163,0.0,0.0,98,0.00,,,2.21,0.000000,,2013-08-03 09:53:00,
2013-08-03 06:02:00,65.0,64.0,29.96,SSE,163,0.0,0.0,98,0.00,,,2.21,0.000000,,2013-08-03 10:02:00,
2013-08-03 06:12:00,65.0,64.0,29.96,SSE,163,0.0,0.0,98,0.00,,,2.21,0.000000,,2013-08-03 10:12:00,
2013-08-03 06:32:00,65.0,64.0,29.96,SSE,163,0.0,0.0,98,0.00,,,2.21,0.000000,,2013-08-03 10:32:00,
2013-08-03 06:42:00,65.0,64.0,29.96,SSE,163,0.0,4.0,98,0.00,,,2.21,0.000000,,2013-08-03 10:42:00,
2013-08-03 06:53:00,65.0,64.0,29.96,SSE,163,0.0,0.0,98,0.00,,,2.21,0.000000,,2013-08-03 10:53:00,
2013-08-03 07:02:00,65.0,64.0,29.96,SSE,163,0.0,0.0,98,0.00,,,2.21,0.000000,,2013-08-03 11:02:00,
2013-08-03 07:12:00,64.0,63.0,29.96,SSE,164,0.0,3.0,98,0.00,,,2.21,0.000000,,2013-08-03 11:12:00,
2013-08-03 07:22:00,64.0,63.0,29.96,SE,140,0.0,0.0,98,0.00,,,2.21,14.000000,,2013-08-03 11:22:00,
2013-08-03 07:32:00,64.0,63.0,29.97,SE,135,0.0,0.0,98,0.00,,,2.21,28.000000,,2013-08-03 11:32:00,
2013-08-03 07:43:00,64.0,63.0,29.97,SE,135,0.0,0.0,98,0.00,,,2.21,28.000000,,2013-08-03 11:43:00,
2013-08-03 07:53:00,64.0,63.0,29.97,SE,134,0.0,0.0,98,0.00,,,2.21,37.000000,,2013-08-03 11:53:00,
2013-08-03 08:03:00,64.0,63.0,29.97,SE,134,0.0,0.0,98,0.00,,,2.21,37.000000,,2013-08-03 12:03:00,
2013-08-03 08:12:00,64.0,63.0,29.97,ESE,113,0.0,4.0,98,0.00,,,2.21,42.000000,,2013-08-03 12:12:00,
2013-08-03 08:22:00,64.0,63.0,29.98,East,92,0.0,3.0,98,0.00,,,2.21,79.000000,,2013-08-03 12:22:00,
2013-08-03 08:33:00,64.0,63.0,29.98,East,92,0.0,3.0,98,0.00,,,2.21,79.000000,,2013-08-03 12:33:00,
2013-08-03 08:43:00,65.0,64.0,29.98,East,93,0.0,0.0,98,0.00,,,2.21,70.000000,,2013-08-03 12:43:00,
2013-08-03 08:52:00,65.0,64.0,29.98,East,93,0.0,0.0,98,0.00,,,2.21,158.000000,,2013-08-03 12:52:00,
2013-08-03 09:02:00,66.0,65.0,29.98,East,86,0.0,0.0,98,0.00,,,2.21,148.000000,,2013-08-03 13:02:00,
2013-08-03 09:12:00,66.0,65.0,29.98,East,86,0.0,0.0,98,0.00,,,2.21,148.000000,,2013-08-03 13:12:00,
2013-08-03 09:43:00,67.0,66.0,29.98,NE,36,4.0,7.0,97,0.00,,,2.21,209.000000,,2013-08-03 13:43:00,
2013-08-03 09:52:00,68.0,67.0,29.98,North,10,0.0,7.0,96,0.00,,,2.21,279.000000,,2013-08-03 13:52:00,
2013-08-03 10:02:00,69.0,67.0,29.98,North,5,0.0,4.0,94,0.00,,,2.19,381.000000,,2013-08-03 14:02:00,
2013-08-03 10:13:00,69.0,67.0,29.98,North,5,0.0,4.0,94,0.00,,,2.19,381.000000,,2013-08-03 14:13:00,
2013-08-03 10:22:00,69.0,66.0,29.99,NNW,346,1.0,9.0,91,0.00,,,2.19,473.000000,,2013-08-03 14:22:00,
2013-08-03 10:33:00,70.0,66.0,29.99,NNW,347,0.0,7.0,88,0.00,,,2.19,545.000000,,2013-08-03 14:33:00,
2013-08-03 10:42:00,70.0,66.0,29.99,NNW,347,0.0,7.0,88,0.00,,,2.19,545.000000,,2013-08-03 14:42:00,
2013-08-03 10:52:00,71.0,67.0,30.00,NNW,347,2.0,6.0,86,0.00,,,2.19,466.000000,,2013-08-03 14:52:00,
2013-08-03 11:02:00,72.0,67.0,29.99,NNW,337,5.0,10.0,83,0.00,,,2.19,548.000000,,2013-08-03 15:02:00,
2013-08-03 11:12:00,72.0,67.0,29.99,NNW,337,5.0,10.0,83,0.00,,,2.19,548.000000,,2013-08-03 15:12:00,
2013-08-03 11:23:00,73.0,66.0,29.99,NNW,347,0.0,11.0,80,0.00,,,2.19,536.000000,,2013-08-03 15:23:00,
2013-08-03 11:32:00,74.0,67.0,30.00,NNE,18,4.0,12.0,80,0.00,,,2.19,568.000000,,2013-08-03 15:32:00,
2013-08-03 11:43:00,74.0,67.0,30.00,NNE,18,4.0,12.0,80,0.00,,,2.19,568.000000,,2013-08-03 15:43:00,
2013-08-03 11:53:00,74.0,66.0,30.00,North,360,5.0,10.0,77,0.00,,,2.19,649.000000,,2013-08-03 15:53:00,
2013-08-03 12:02:00,74.0,66.0,30.00,NNE,14,7.0,12.0,76,0.00,,,2.18,823.000000,,2013-08-03 16:02:00,
2013-08-03 12:12:00,74.0,66.0,30.00,NNE,14,7.0,12.0,76,0.00,,,2.18,823.000000,,2013-08-03 16:12:00,
2013-08-03 12:23:00,75.0,67.0,30.00,NNE,22,6.0,10.0,77,0.00,,,2.18,914.000000,,2013-08-03 16:23:00,
2013-08-03 12:33:00,75.0,67.0,30.00,NNE,22,6.0,10.0,77,0.00,,,2.18,914.000000,,2013-08-03 16:33:00,
2013-08-03 12:43:00,75.0,67.0,30.00,NNE,22,6.0,10.0,77,0.00,,,2.18,914.000000,,2013-08-03 16:43:00,
2013-08-03 12:53:00,75.0,66.0,30.01,NNE,19,1.0,8.0,74,0.00,,,2.18,278.000000,,2013-08-03 16:53:00,
2013-08-03 13:03:00,76.0,67.0,30.01,NNE,13,0.0,7.0,73,0.00,,,2.18,253.000000,,2013-08-03 17:03:00,
2013-08-03 13:12:00,76.0,67.0,30.01,NNE,13,0.0,7.0,73,0.00,,,2.18,253.000000,,2013-08-03 17:12:00,
2013-08-03 13:22:00,76.0,67.0,30.01,NNE,13,0.0,7.0,73,0.00,,,2.18,253.000000,,2013-08-03 17:22:00,
2013-08-03 13:32:00,76.0,67.0,30.01,NNE,13,0.0,7.0,73,0.00,,,2.18,253.000000,,2013-08-03 17:32:00,
2013-08-03 13:43:00,76.0,67.0,30.01,NNE,13,0.0,7.0,73,0.00,,,2.18,253.000000,,2013-08-03 17:43:00,
2013-08-03 17:22:00,79.0,63.0,29.99,NNW,332,10.0,-999.0,59,-99.99,,,-99.99,670.000000,,2013-08-03 21:22:00,
2013-08-03 17:32:00,79.0,63.0,30.00,WNW,303,12.0,-999.0,58,-99.99,,,-99.99,675.000000,,2013-08-03 21:32:00,
2013-08-03 17:42:00,79.0,63.0,30.00,WNW,303,12.0,-999.0,58,-99.99,,,-99.99,675.000000,,2013-08-03 21:42:00,
2013-08-03 17:52:00,78.0,64.0,30.00,NW,322,13.0,-999.0,63,-99.99,,,-99.99,578.000000,,2013-08-03 21:52:00,
2013-08-03 18:02:00,77.0,63.0,30.01,NW,323,12.0,-999.0,62,-99.99,,,-99.99,629.000000,,2013-08-03 22:02:00,
2013-08-03 18:12:00,77.0,63.0,30.01,NW,323,12.0,-999.0,62,-99.99,,,-99.99,629.000000,,2013-08-03 22:12:00,
2013-08-03 18:22:00,77.0,63.0,30.01,NNW,342,12.0,-999.0,62,-99.99,,,-99.99,512.000000,,2013-08-03 22:22:00,
2013-08-03 18:33:00,77.0,63.0,30.01,NW,319,10.0,-999.0,62,-99.99,,,-99.99,476.000000,,2013-08-03 22:33:00,
2013-08-03 18:43:00,77.0,63.0,30.01,NW,319,10.0,-999.0,62,-99.99,,,-99.99,476.000000,,2013-08-03 22:43:00,
2013-08-03 18:52:00,77.0,63.0,30.01,NW,319,10.0,-999.0,62,-99.99,,,-99.99,476.000000,,2013-08-03 22:52:00,
2013-08-03 19:02:00,75.0,61.0,30.02,NW,325,10.0,-999.0,62,-99.99,,,-99.99,142.000000,,2013-08-03 23:02:00,
2013-08-03 19:12:00,75.0,61.0,30.02,NW,325,10.0,-999.0,62,-99.99,,,-99.99,142.000000,,2013-08-03 23:12:00,
2013-08-03 19:22:00,75.0,61.0,30.01,NW,326,10.0,-999.0,61,-99.99,,,-99.99,369.000000,,2013-08-03 23:22:00,
2013-08-03 19:32:00,75.0,61.0,30.01,NW,326,10.0,-999.0,61,-99.99,,,-99.99,369.000000,,2013-08-03 23:32:00,
2013-08-03 19:43:00,75.0,61.0,30.01,NW,326,10.0,-999.0,61,-99.99,,,-99.99,369.000000,,2013-08-03 23:43:00,
2013-08-03 19:52:00,74.0,59.0,30.02,NW,314,11.0,-999.0,59,-99.99,,,-99.99,84.000000,,2013-08-03 23:52:00,
2013-08-03 20:02:00,72.0,58.0,30.03,NNW,327,8.0,-999.0,61,-99.99,,,-99.99,105.000000,,2013-08-04 00:02:00,
2013-08-03 20:03:00,73.0,59.0,30.03,NW,322,8.0,-999.0,61,-99.99,,,-99.99,42.000000,,2013-08-04 00:03:00,
2013-08-03 20:12:00,73.0,59.0,30.03,NW,322,8.0,-999.0,61,-99.99,,,-99.99,42.000000,,2013-08-04 00:12:00,
2013-08-03 20:22:00,72.0,58.0,30.03,NNW,327,8.0,-999.0,61,-99.99,,,-99.99,105.000000,,2013-08-04 00:22:00,
2013-08-03 20:32:00,72.0,58.0,30.03,NNW,327,8.0,-999.0,61,-99.99,,,-99.99,105.000000,,2013-08-04 00:32:00,
2013-08-03 20:42:00,72.0,58.0,30.03,NNW,327,8.0,-999.0,61,-99.99,,,-99.99,105.000000,,2013-08-04 00:42:00,
2013-08-03 20:53:00,72.0,58.0,30.03,NNW,327,8.0,-999.0,61,-99.99,,,-99.99,105.000000,,2013-08-04 00:53:00,
2013-08-03 21:12:00,69.0,57.0,30.03,NW,311,3.0,-999.0,66,-99.99,,,-99.99,11.000000,,2013-08-04 01:12:00,
2013-08-03 21:22:00,69.0,57.0,30.03,NW,311,3.0,-999.0,66,-99.99,,,-99.99,11.000000,,2013-08-04 01:22:00,
2013-08-03 21:32:00,69.0,57.0,30.03,NW,311,3.0,-999.0,66,-99.99,,,-99.99,11.000000,,2013-08-04 01:32:00,
2013-08-03 21:42:00,69.0,57.0,30.03,NW,311,3.0,-999.0,66,-99.99,,,-99.99,11.000000,,2013-08-04 01:42:00,
2013-08-03 21:53:00,66.0,56.0,30.04,NW,315,0.0,-999.0,70,-99.99,,,-99.99,0.000000,,2013-08-04 01:53:00,
2013-08-03 22:03:00,66.0,56.0,30.04,NW,315,0.0,-999.0,70,-99.99,,,-99.99,0.000000,,2013-08-04 02:03:00,
2013-08-03 22:12:00,66.0,56.0,30.04,NW,315,0.0,-999.0,70,-99.99,,,-99.99,0.000000,,2013-08-04 02:12:00,
2013-08-03 22:22:00,66.0,56.0,30.04,NW,314,4.0,-999.0,71,-99.99,,,-99.99,0.000000,,2013-08-04 02:22:00,
2013-08-03 22:32:00,66.0,56.0,30.04,NW,314,4.0,-999.0,71,-99.99,,,-99.99,0.000000,,2013-08-04 02:32:00,
2013-08-03 22:42:00,66.0,56.0,30.04,NW,314,4.0,-999.0,71,-99.99,,,-99.99,0.000000,,2013-08-04 02:42:00,
2013-08-03 22:52:00,66.0,56.0,30.04,NW,314,4.0,-999.0,71,-99.99,,,-99.99,0.000000,,2013-08-04 02:52:00,
2013-08-03 23:02:00,66.0,56.0,30.04,NW,314,4.0,-999.0,71,-99.99,,,-99.99,0.000000,,2013-08-04 03:02:00,